Medicine Lodge, KS

12:02 PM CDT on October 20, 2019 (GMT -0500)
Medicine Lodge

Weather History for KP28 - September, 2019

Change the Weather History Date:

Saturday, September 14, 2019

  Actual Average Record
Temperature  
Mean Temperature 81 °F 72 °F  
Max Temperature 94 °F 85 °F 104 °F (1911)
Min Temperature 67 °F 59 °F 39 °F (1945)
Degree Days  
Heating Degree Days 0 1  
Month to date heating degree days 0 2  
Since 1 July heating degree days 0 2  
Cooling Degree Days 16 8  
Month to date cooling degree days 206 137  
Year to date cooling degree days 1610 1648  
Growing Degree Days 30 (Base 50)    
Moisture  
Dew Point 65 °F    
Average Humidity 67    
Maximum Humidity 100    
Minimum Humidity 33    
Precipitation  
Precipitation 0.00 in 0.05 in 2.60 in (1957)
Month to date precipitation 0.03 1.05  
Year to date precipitation 26.50 21.40  
Snow  
Snow 0.00 in 0.00 in - ()
Month to date snowfall 0.0 0.0  
Since 1 July snowfall 0.0 0.0  
Since 1 September snowfall 0.0 0.0  
Snow Depth 0.00 in    
Sea Level Pressure  
Sea Level Pressure 30.06 in    
Wind  
Wind Speed 11 mph (South)    
Max Wind Speed 23 mph    
Max Gust Speed 34 mph    
T = Trace of Precipitation, MM = Missing Value Source: NWS Daily Summary

Daily Weather History Graph

Daily Weather History Graph

Search for Another Location

Airport or City:

Astronomy

Sep. 14, 2019 Rise Set
Actual Time 7:15 AM CDT 7:43 PM CDT
Civil Twilight 6:49 AM CDT 8:09 PM CDT
Nautical Twilight 6:18 AM CDT 8:40 PM CDT
Astronomical Twilight 5:46 AM CDT 9:12 PM CDT
Moon 8:25 PM CDT (9/14) 7:31 AM CDT (9/14)
Length of Visible Light 13h 20m
Length of Day
12h 28m
Full, 100% of the Moon is Illuminated
Sep 14
Full
Sep 21
Last Quarter
Sep 28
New
Oct 5
First Quarter
Oct 13
Full

Hourly Weather History & Observations

Time (CDT) Temp. Heat Index Dew Point Humidity Pressure Visibility Wind Dir Wind Speed Gust Speed Precip Events Conditions
1:56 AM 68.0 °F - 68.0 °F 100% 30.14 in - SE 5.8 mph - N/A   Unknown
2:56 AM 66.9 °F - 66.9 °F 100% 30.14 in - SE 4.6 mph - N/A   Unknown
3:56 AM 66.9 °F - 66.9 °F 100% 30.12 in - SSE 4.6 mph - N/A   Unknown
4:56 AM 68.0 °F - 68.0 °F 100% 30.13 in - South 6.9 mph - N/A   Unknown
5:56 AM 68.0 °F - 68.0 °F 100% 30.13 in - South 8.1 mph - N/A   Unknown
6:56 AM 68.0 °F - 68.0 °F 100% 30.13 in - South 8.1 mph - N/A   Unknown
7:56 AM 68.0 °F - 68.0 °F 100% 30.14 in - South 6.9 mph - N/A   Unknown
9:56 AM 71.1 °F - 69.1 °F 93% 30.14 in - South 9.2 mph - N/A   Unknown
10:56 AM 80.1 °F 83.2 °F 70.0 °F 71% 30.11 in - South 12.7 mph 23.0 mph N/A   Unknown
12:56 PM 89.1 °F 90.3 °F 64.0 °F 43% 30.04 in - South 21.9 mph 32.2 mph N/A   Unknown
2:56 PM 93.0 °F 93.8 °F 62.1 °F 36% 29.99 in - SSW 17.3 mph 27.6 mph N/A   Unknown
3:56 PM 93.9 °F 94.0 °F 61.0 °F 33% 29.97 in - SSW 17.3 mph 32.2 mph N/A   Unknown
4:56 PM 93.9 °F 94.0 °F 61.0 °F 33% 29.96 in - South 16.1 mph 28.8 mph N/A   Unknown
5:56 PM 91.0 °F 91.5 °F 62.1 °F 38% 29.96 in - South 20.7 mph 29.9 mph N/A   Unknown
6:56 PM 87.1 °F 87.5 °F 62.1 °F 43% 29.97 in - South 15.0 mph 25.3 mph N/A   Unknown
7:56 PM 84.0 °F 84.9 °F 63.0 °F 49% 29.99 in - South 11.5 mph - N/A   Unknown
8:56 PM 82.0 °F 83.4 °F 64.0 °F 54% 29.99 in - South 11.5 mph - N/A   Unknown
9:56 PM 80.1 °F 81.7 °F 64.0 °F 58% 30.02 in - South 10.4 mph - N/A   Unknown
10:56 PM 77.0 °F - 64.0 °F 64% 30.03 in - South 8.1 mph - N/A   Unknown
11:56 PM 75.0 °F - 64.9 °F 71% 30.03 in - SSE 5.8 mph - N/A   Unknown